ASA1432 KLAX-KSFO

Flight info

Callsign ASA1432
Flight time N/A
Altitude 36000
Route SUMMR2 STOKD SERFR SERFR4
Aircraft B738/M-SDE2E3FGHIRWXY/LB1

Departure

Time 2026-05-04 00:27
Airport Los Angeles International Airport (KLAX)

Arrival

Time N/A
Airport San Francisco International Airport (KSFO)
Time Latitude Longitude Altitude Speed Heading
2026-05-03 23:39 33.94102 -118.40130 121 ft 0 kts 266°
2026-05-04 00:15 33.94103 -118.40110 123 ft 4 kts 259°
2026-05-04 00:15 33.94111 -118.40085 119 ft 4 kts 204°
2026-05-04 00:16 33.94119 -118.40081 121 ft 3 kts 174°
2026-05-04 00:16 33.94092 -118.40077 119 ft 4 kts 172°
2026-05-04 00:16 33.94065 -118.40073 121 ft 4 kts 173°
2026-05-04 00:16 33.94051 -118.40071 123 ft 0 kts 173°
2026-05-04 00:19 33.94049 -118.40071 123 ft 1 kts 173°
2026-05-04 00:20 33.94040 -118.40069 123 ft 2 kts 174°
2026-05-04 00:20 33.94021 -118.40067 123 ft 3 kts 174°
2026-05-04 00:20 33.93992 -118.40062 122 ft 5 kts 172°
2026-05-04 00:20 33.93950 -118.40056 122 ft 8 kts 173°
2026-05-04 00:21 33.93899 -118.40026 122 ft 10 kts 135°
2026-05-04 00:21 33.93884 -118.39943 121 ft 12 kts 85°
2026-05-04 00:21 33.93896 -118.39828 122 ft 16 kts 83°
2026-05-04 00:21 33.93911 -118.39682 123 ft 17 kts 83°
2026-05-04 00:22 33.93926 -118.39529 120 ft 20 kts 83°
2026-05-04 00:22 33.93944 -118.39361 123 ft 20 kts 82°
2026-05-04 00:22 33.93961 -118.39195 125 ft 19 kts 83°
2026-05-04 00:22 33.93977 -118.39033 125 ft 19 kts 83°
2026-05-04 00:23 33.93994 -118.38864 125 ft 21 kts 83°
2026-05-04 00:23 33.94011 -118.38699 121 ft 21 kts 83°
2026-05-04 00:23 33.94029 -118.38527 125 ft 17 kts 83°
2026-05-04 00:23 33.94044 -118.38373 123 ft 20 kts 82°
2026-05-04 00:24 33.94062 -118.38203 125 ft 19 kts 83°
2026-05-04 00:24 33.94074 -118.38086 125 ft 11 kts 83°
2026-05-04 00:24 33.94075 -118.38035 125 ft 4 kts 104°
2026-05-04 00:24 33.94073 -118.38030 125 ft 0 kts 110°
2026-05-04 00:25 33.94068 -118.38018 122 ft 3 kts 118°
2026-05-04 00:25 33.94043 -118.38001 125 ft 5 kts 172°
2026-05-04 00:26 33.94001 -118.38005 123 ft 7 kts 210°
2026-05-04 00:26 33.93979 -118.38083 125 ft 18 kts 263°
2026-05-04 00:26 33.93936 -118.38501 125 ft 84 kts 263°
2026-05-04 00:26 33.93839 -118.39444 128 ft 140 kts 263°
2026-05-04 00:27 33.93707 -118.40697 505 ft 159 kts 262°
2026-05-04 00:27 33.93555 -118.42063 1118 ft 165 kts 261°
2026-05-04 00:27 33.93399 -118.43442 1936 ft 173 kts 261°
2026-05-04 00:27 33.93247 -118.45012 2361 ft 205 kts 263°
2026-05-04 00:28 33.93090 -118.46823 2802 ft 229 kts 264°
2026-05-04 00:28 33.92928 -118.48802 3446 ft 245 kts 263°
2026-05-04 00:28 33.92761 -118.50865 4373 ft 251 kts 264°
2026-05-04 00:28 33.92589 -118.52979 4811 ft 250 kts 264°
2026-05-04 00:29 33.92417 -118.55084 5007 ft 257 kts 263°
2026-05-04 00:29 33.92238 -118.57261 5002 ft 264 kts 264°
2026-05-04 00:29 33.92057 -118.59439 5002 ft 261 kts 264°
2026-05-04 00:29 33.91878 -118.61601 5161 ft 257 kts 263°
2026-05-04 00:30 33.91736 -118.63784 5729 ft 265 kts 268°
2026-05-04 00:30 33.91722 -118.65988 6834 ft 262 kts 269°
2026-05-04 00:30 33.91728 -118.68188 7807 ft 265 kts 269°
2026-05-04 00:30 33.91733 -118.70432 8693 ft 270 kts 268°
2026-05-04 00:31 33.91734 -118.72721 9548 ft 277 kts 267°
2026-05-04 00:31 33.91729 -118.75062 10394 ft 283 kts 267°
2026-05-04 00:31 33.91719 -118.77532 10685 ft 309 kts 267°
2026-05-04 00:31 33.91705 -118.80209 11041 ft 329 kts 267°
2026-05-04 00:32 33.91693 -118.82989 11692 ft 332 kts 267°
2026-05-04 00:32 33.91731 -118.85801 12300 ft 339 kts 269°
2026-05-04 00:32 33.91827 -118.88650 13198 ft 341 kts 269°
2026-05-04 00:32 33.91930 -118.91506 14061 ft 343 kts 269°
2026-05-04 00:33 33.92025 -118.94379 14898 ft 343 kts 269°
2026-05-04 00:33 33.92220 -119.00109 16651 ft 344 kts 273°
2026-05-04 00:33 33.92870 -119.02901 17473 ft 353 kts 290°
2026-05-04 00:34 33.94092 -119.05483 18308 ft 357 kts 296°
2026-05-04 00:34 33.95442 -119.08014 18976 ft 360 kts 296°
2026-05-04 00:34 33.96801 -119.10547 19674 ft 360 kts 296°
2026-05-04 00:34 33.98139 -119.13093 20371 ft 360 kts 295°
2026-05-04 00:35 33.99469 -119.15660 21062 ft 361 kts 294°
2026-05-04 00:35 34.00865 -119.18200 21711 ft 369 kts 301°
2026-05-04 00:35 34.02802 -119.20334 22348 ft 387 kts 313°
2026-05-04 00:35 34.05004 -119.22238 22919 ft 391 kts 314°
2026-05-04 00:36 34.07242 -119.24122 23497 ft 394 kts 314°
2026-05-04 00:36 34.09502 -119.26018 23993 ft 396 kts 314°
2026-05-04 00:36 34.11762 -119.27926 24502 ft 397 kts 314°
2026-05-04 00:36 34.14021 -119.29847 24991 ft 398 kts 313°
2026-05-04 00:37 34.16280 -119.31782 25458 ft 399 kts 313°
2026-05-04 00:37 34.17781 -119.33072 25766 ft 401 kts 313°
2026-05-04 00:37 34.20822 -119.35693 26378 ft 403 kts 313°
2026-05-04 00:37 34.22335 -119.36999 26684 ft 405 kts 313°
2026-05-04 00:38 34.24638 -119.38989 27089 ft 407 kts 313°
2026-05-04 00:38 34.26945 -119.40983 27520 ft 409 kts 313°
2026-05-04 00:38 34.29263 -119.42987 27953 ft 410 kts 313°
2026-05-04 00:38 34.31590 -119.45000 28363 ft 412 kts 313°
2026-05-04 00:39 34.33931 -119.47027 28750 ft 414 kts 313°
2026-05-04 00:39 34.36279 -119.49061 29136 ft 416 kts 313°
2026-05-04 00:39 34.38639 -119.51107 29529 ft 418 kts 313°
2026-05-04 00:39 34.40995 -119.53162 30038 ft 416 kts 311°
2026-05-04 00:40 34.43138 -119.55429 30530 ft 402 kts 304°
2026-05-04 00:40 34.45089 -119.57816 31057 ft 396 kts 302°
2026-05-04 00:40 34.47038 -119.60174 31615 ft 395 kts 303°
2026-05-04 00:40 34.49000 -119.62492 32025 ft 390 kts 300°
2026-05-04 00:41 34.50798 -119.64938 32202 ft 391 kts 299°
2026-05-04 00:41 34.52672 -119.67350 32696 ft 394 kts 302°
2026-05-04 00:41 34.54578 -119.69661 33348 ft 384 kts 300°
2026-05-04 00:41 34.56431 -119.71985 33792 ft 384 kts 300°
2026-05-04 00:42 34.58288 -119.74314 34081 ft 385 kts 300°
2026-05-04 00:42 34.60149 -119.76643 34430 ft 384 kts 300°
2026-05-04 00:42 34.62012 -119.78964 34743 ft 383 kts 301°
2026-05-04 00:42 34.63856 -119.81296 35016 ft 383 kts 300°
2026-05-04 00:43 34.65719 -119.83627 35268 ft 386 kts 301°
2026-05-04 00:43 34.67614 -119.85957 35481 ft 388 kts 301°
2026-05-04 00:43 34.69508 -119.88292 35773 ft 388 kts 301°
2026-05-04 00:43 34.71390 -119.90599 36015 ft 393 kts 303°
2026-05-04 00:44 34.73398 -119.92944 36002 ft 395 kts 303°
2026-05-04 00:44 34.77149 -119.97731 35883 ft 377 kts 290°
2026-05-04 00:44 34.78382 -120.00466 36126 ft 361 kts 288°
2026-05-04 00:45 34.79817 -120.03061 35927 ft 387 kts 300°
2026-05-04 00:45 34.83813 -120.07699 35950 ft 408 kts 310°
2026-05-04 00:46 34.88296 -120.11980 36021 ft 406 kts 306°
2026-05-04 00:46 34.92343 -120.16692 36007 ft 402 kts 303°
2026-05-04 00:47 34.96094 -120.21363 36001 ft 393 kts 301°
2026-05-04 00:47 34.99909 -120.26122 36009 ft 391 kts 302°
2026-05-04 00:47 35.01738 -120.28556 35809 ft 393 kts 301°
2026-05-04 00:48 35.03644 -120.30954 35871 ft 394 kts 303°
2026-05-04 00:48 35.07522 -120.35724 35998 ft 397 kts 303°
2026-05-04 00:49 35.11491 -120.40462 36028 ft 406 kts 306°
2026-05-04 00:49 35.15708 -120.45120 36003 ft 411 kts 306°
2026-05-04 00:50 35.19935 -120.49767 35981 ft 406 kts 307°
2026-05-04 00:50 35.24085 -120.54353 35983 ft 398 kts 304°
2026-05-04 00:51 35.28013 -120.59022 36018 ft 395 kts 306°
2026-05-04 00:51 35.32104 -120.63549 35978 ft 394 kts 304°
2026-05-04 00:52 35.36151 -120.68091 36014 ft 396 kts 306°
2026-05-04 00:52 35.40232 -120.72644 36037 ft 398 kts 306°
2026-05-04 00:53 35.44278 -120.77289 36026 ft 399 kts 306°
2026-05-04 00:53 35.48401 -120.81887 36023 ft 402 kts 307°
2026-05-04 00:54 35.52860 -120.86206 36014 ft 412 kts 311°
2026-05-04 00:54 35.57477 -120.90388 36067 ft 413 kts 311°
2026-05-04 00:55 35.62096 -120.94608 36021 ft 412 kts 311°
2026-05-04 00:55 35.64387 -120.96728 35859 ft 413 kts 310°
2026-05-04 00:55 35.66670 -120.98852 35564 ft 408 kts 310°
2026-05-04 00:55 35.68942 -121.00920 35158 ft 405 kts 310°
2026-05-04 00:56 35.71153 -121.02957 34783 ft 400 kts 309°
2026-05-04 00:56 35.73353 -121.05019 34419 ft 396 kts 309°
2026-05-04 00:56 35.75526 -121.07065 33998 ft 395 kts 309°
2026-05-04 00:56 35.77699 -121.09105 33557 ft 392 kts 308°
2026-05-04 00:57 35.79858 -121.11137 33144 ft 388 kts 308°
2026-05-04 00:57 35.81994 -121.13143 32745 ft 385 kts 308°
2026-05-04 00:57 35.84115 -121.15135 32355 ft 382 kts 308°
2026-05-04 00:57 35.86218 -121.17109 31976 ft 378 kts 308°
2026-05-04 00:58 35.88303 -121.19065 31598 ft 375 kts 308°
2026-05-04 00:58 35.90367 -121.21004 31236 ft 371 kts 308°
2026-05-04 00:58 35.92414 -121.22928 30880 ft 369 kts 309°
2026-05-04 00:58 35.94449 -121.24845 30515 ft 367 kts 309°
2026-05-04 00:59 35.96477 -121.26756 30138 ft 366 kts 309°
2026-05-04 00:59 35.98491 -121.28656 29712 ft 364 kts 310°
2026-05-04 00:59 36.00498 -121.30548 29305 ft 361 kts 310°
2026-05-04 00:59 36.02502 -121.32406 28941 ft 359 kts 311°
2026-05-04 01:00 36.04477 -121.34265 28514 ft 355 kts 311°
2026-05-04 01:00 36.06421 -121.36116 28151 ft 351 kts 311°
2026-05-04 01:00 36.08413 -121.37873 27797 ft 353 kts 317°
2026-05-04 01:00 36.10491 -121.39504 27385 ft 354 kts 320°
2026-05-04 01:01 36.12582 -121.41097 26976 ft 353 kts 320°
2026-05-04 01:01 36.14673 -121.42692 26633 ft 352 kts 321°
2026-05-04 01:01 36.16753 -121.44285 26250 ft 351 kts 321°
2026-05-04 01:01 36.18812 -121.45868 25895 ft 348 kts 321°
2026-05-04 01:02 36.20862 -121.47453 25564 ft 346 kts 322°
2026-05-04 01:02 36.22901 -121.49040 25201 ft 347 kts 322°
2026-05-04 01:02 36.24952 -121.50637 24853 ft 349 kts 323°
2026-05-04 01:02 36.27024 -121.52253 24499 ft 356 kts 324°
2026-05-04 01:03 36.29114 -121.53890 24093 ft 362 kts 324°
2026-05-04 01:03 36.31239 -121.55557 23720 ft 362 kts 325°
2026-05-04 01:03 36.33362 -121.57221 23286 ft 361 kts 325°
2026-05-04 01:03 36.35476 -121.58881 22880 ft 358 kts 325°
2026-05-04 01:04 36.37582 -121.60530 22504 ft 356 kts 325°
2026-05-04 01:04 36.39666 -121.62162 22133 ft 353 kts 325°
2026-05-04 01:04 36.41739 -121.63788 21775 ft 351 kts 325°
2026-05-04 01:04 36.43798 -121.65405 21395 ft 350 kts 326°
2026-05-04 01:05 36.45849 -121.67017 21039 ft 348 kts 326°
2026-05-04 01:05 36.47886 -121.68620 20682 ft 346 kts 325°
2026-05-04 01:05 36.49915 -121.70217 20322 ft 345 kts 325°
2026-05-04 01:05 36.51965 -121.71836 19853 ft 352 kts 325°
2026-05-04 01:06 36.54085 -121.73515 19480 ft 373 kts 326°
2026-05-04 01:06 36.56298 -121.75266 19086 ft 378 kts 326°
2026-05-04 01:06 36.58521 -121.77023 18712 ft 378 kts 325°
2026-05-04 01:06 36.60746 -121.78784 18288 ft 380 kts 326°
2026-05-04 01:07 36.62970 -121.80546 17872 ft 379 kts 326°
2026-05-04 01:07 36.65187 -121.82302 17459 ft 376 kts 326°
2026-05-04 01:07 36.67386 -121.84046 17069 ft 374 kts 326°
2026-05-04 01:07 36.69573 -121.85782 16689 ft 372 kts 326°
2026-05-04 01:08 36.71758 -121.87517 16302 ft 371 kts 326°
2026-05-04 01:08 36.73951 -121.89206 15948 ft 370 kts 331°
2026-05-04 01:08 36.76395 -121.90198 15571 ft 370 kts 348°
2026-05-04 01:08 36.78905 -121.90844 15191 ft 367 kts 348°
2026-05-04 01:09 36.81384 -121.91487 14819 ft 363 kts 348°
2026-05-04 01:09 36.83837 -121.92141 14455 ft 359 kts 347°
2026-05-04 01:09 36.86268 -121.92806 14085 ft 356 kts 347°
2026-05-04 01:09 36.88678 -121.93474 13713 ft 354 kts 347°
2026-05-04 01:10 36.91080 -121.94146 13314 ft 353 kts 347°
2026-05-04 01:10 36.93472 -121.94816 12917 ft 350 kts 347°
2026-05-04 01:10 36.95827 -121.95501 12560 ft 346 kts 345°
2026-05-04 01:10 36.98129 -121.96340 12199 ft 343 kts 342°
2026-05-04 01:11 37.00387 -121.97240 11829 ft 336 kts 342°
2026-05-04 01:11 37.02576 -121.98125 11478 ft 327 kts 342°
2026-05-04 01:11 37.04713 -121.98984 11160 ft 318 kts 342°
2026-05-04 01:11 37.06801 -121.99816 10823 ft 312 kts 343°
2026-05-04 01:12 37.08858 -122.00628 10519 ft 309 kts 343°
2026-05-04 01:12 37.10879 -122.01423 10256 ft 307 kts 343°
2026-05-04 01:12 37.12919 -122.02223 10116 ft 300 kts 343°
2026-05-04 01:12 37.14892 -122.02996 9874 ft 297 kts 343°
2026-05-04 01:13 37.16842 -122.03756 9572 ft 297 kts 343°
2026-05-04 01:13 37.18809 -122.04527 9263 ft 296 kts 343°
2026-05-04 01:13 37.20775 -122.05299 8976 ft 295 kts 343°
2026-05-04 01:13 37.22733 -122.06064 8683 ft 295 kts 343°
2026-05-04 01:14 37.24695 -122.06830 8387 ft 295 kts 343°
2026-05-04 01:14 37.26639 -122.07627 8083 ft 294 kts 343°
2026-05-04 01:14 37.28605 -122.08367 7721 ft 297 kts 344°
2026-05-04 01:14 37.30587 -122.09132 7337 ft 299 kts 343°
2026-05-04 01:15 37.32572 -122.09924 6964 ft 301 kts 343°
2026-05-04 01:15 37.34573 -122.10720 6567 ft 303 kts 343°
2026-05-04 01:15 37.36593 -122.11520 6171 ft 303 kts 343°
2026-05-04 01:15 37.38596 -122.12285 5749 ft 299 kts 345°
2026-05-04 01:16 37.40581 -122.12961 5388 ft 292 kts 345°
2026-05-04 01:16 37.42509 -122.13611 5045 ft 283 kts 345°
2026-05-04 01:16 37.44388 -122.14247 4709 ft 275 kts 344°
2026-05-04 01:16 37.46213 -122.14858 4374 ft 268 kts 344°
2026-05-04 01:17 37.47992 -122.15441 4057 ft 261 kts 343°
2026-05-04 01:17 37.49728 -122.16011 3779 ft 253 kts 343°
2026-05-04 01:17 37.51410 -122.16563 3527 ft 248 kts 342°
2026-05-04 01:17 37.53029 -122.17208 3297 ft 239 kts 328°
2026-05-04 01:18 37.54150 -122.18625 3061 ft 222 kts 298°
2026-05-04 01:18 37.54897 -122.20291 2758 ft 213 kts 294°
2026-05-04 01:18 37.55573 -122.21905 2487 ft 203 kts 293°
2026-05-04 01:18 37.56210 -122.23435 2197 ft 191 kts 293°
2026-05-04 01:19 37.56801 -122.24846 1968 ft 173 kts 294°
2026-05-04 01:19 37.57332 -122.26114 1750 ft 159 kts 292°
2026-05-04 01:19 37.57840 -122.27332 1572 ft 152 kts 294°
2026-05-04 01:19 37.58321 -122.28481 1349 ft 147 kts 294°
2026-05-04 01:20 37.58785 -122.29590 1173 ft 138 kts 293°
2026-05-04 01:20 37.59217 -122.30648 1036 ft 135 kts 293°
2026-05-04 01:20 37.59672 -122.31720 796 ft 142 kts 293°
2026-05-04 01:20 37.60139 -122.32805 557 ft 137 kts 292°
2026-05-04 01:21 37.60575 -122.33860 388 ft 135 kts 292°
2026-05-04 01:21 37.61015 -122.34906 244 ft 134 kts 291°
2026-05-04 01:21 37.61455 -122.35948 42 ft 135 kts 292°
2026-05-04 01:21 37.61846 -122.36900 18 ft 106 kts 300°
2026-05-04 01:22 37.62002 -122.37267 17 ft 85 kts 302°